When you browse on this site, cookies collect data to enhance your experience and personalize the content and advertising you see.
Visit our Privacy Policy to learn more. By continuing to use the site, you agree to this use of cookies and data.
  • In Latvia
  • List of Countries
  • For 7 days
  • Water Temperature
  • Weather Map
  • Weather Widgets
  • user-avatar
    Login

    Hourly Weather Wiktoria

    Today, 22 January, Wednesday

    Time Temperature Precipitation Wind Pressure Humidity
    00:00 +20°C° 0 mm 2 mps 743 mmHg 58%
    01:00 +19°C° 0 mm 2 mps 743 mmHg 60%
    02:00 +19°C° 0 mm 3 mps 743 mmHg 62%
    03:00 +19°C° 0 mm 3 mps 743 mmHg 64%
    04:00 +18°C° 0 mm 3 mps 743 mmHg 57%
    05:00 +19°C° 0 mm 4 mps 743 mmHg 57%
    06:00 +20°C° 0 mm 4 mps 743 mmHg 56%
    07:00 +20°C° 0 mm 5 mps 743 mmHg 55%
    08:00 +23°C° 0 mm 5 mps 743 mmHg 47%
    09:00 +27°C° 0 mm 6 mps 742 mmHg 39%
    10:00 +29°C° 0 mm 8 mps 742 mmHg 33%
    11:00 +32°C° 0 mm 8 mps 741 mmHg 30%
    12:00 +33°C° 0 mm 9 mps 740 mmHg 26%
    13:00 +35°C° 0 mm 9 mps 740 mmHg 23%
    14:00 +35°C° 0 mm 8 mps 739 mmHg 23%
    15:00 +34°C° 0 mm 7 mps 738 mmHg 24%
    16:00 +34°C° 0 mm 7 mps 738 mmHg 22%
    17:00 +33°C° 0 mm 5 mps 737 mmHg 26%
    18:00 +30°C° 0 mm 4 mps 737 mmHg 31%
    19:00 +29°C° 0 mm 3 mps 736 mmHg 36%
    20:00 +28°C° 0 mm 4 mps 737 mmHg 37%
    21:00 +28°C° 0 mm 5 mps 737 mmHg 39%
    22:00 +28°C° 0 mm 6 mps 737 mmHg 34%
    23:00 +26°C° 0 mm 5 mps 737 mmHg 45%

    Tomorrow, 23 January, Thursday

    Time Temperature Precipitation Wind Pressure Humidity
    00:00 +23°C° 0 mm 5 mps 737 mmHg 55%
    01:00 +21°C° 0 mm 4 mps 736 mmHg 66%
    02:00 +21°C° 0.2 mm 5 mps 736 mmHg 70%
    03:00 +20°C° 0.2 mm 5 mps 736 mmHg 73%
    04:00 +19°C° 0.2 mm 5 mps 736 mmHg 77%
    05:00 +18°C° 1.5 mm 4 mps 736 mmHg 79%
    06:00 +17°C° 1.5 mm 3 mps 737 mmHg 81%
    07:00 +16°C° 1.5 mm 2 mps 737 mmHg 83%
    08:00 +16°C° 0.5 mm 2 mps 738 mmHg 82%
    09:00 +16°C° 0.5 mm 3 mps 738 mmHg 81%
    10:00 +16°C° 0.5 mm 3 mps 738 mmHg 80%
    11:00 +18°C° 0.1 mm 4 mps 738 mmHg 74%
    12:00 +19°C° 0.1 mm 5 mps 738 mmHg 68%
    13:00 +20°C° 0.1 mm 6 mps 738 mmHg 62%
    14:00 +20°C° 0.1 mm 6 mps 738 mmHg 60%
    15:00 +20°C° 0.1 mm 6 mps 739 mmHg 58%
    16:00 +20°C° 0.1 mm 7 mps 739 mmHg 56%
    17:00 +20°C° 0 mm 6 mps 739 mmHg 53%
    18:00 +20°C° 0 mm 5 mps 740 mmHg 49%
    19:00 +20°C° 0 mm 4 mps 741 mmHg 46%
    20:00 +18°C° 0 mm 4 mps 741 mmHg 48%
    21:00 +17°C° 0 mm 4 mps 742 mmHg 49%
    22:00 +16°C° 0 mm 3 mps 743 mmHg 51%
    23:00 +14°C° 0 mm 3 mps 743 mmHg 53%

    Day after tomorrow, 24 January, Friday

    Time Temperature Precipitation Wind Pressure Humidity
    00:00 +13°C° 0 mm 3 mps 743 mmHg 56%
    01:00 +13°C° 0 mm 2 mps 743 mmHg 58%
    02:00 +13°C° 0 mm 2 mps 744 mmHg 60%
    03:00 +12°C° 0 mm 2 mps 744 mmHg 63%
    04:00 +12°C° 0 mm 1 mps 745 mmHg 65%
    05:00 +13°C° 0 mm 2 mps 745 mmHg 64%
    06:00 +13°C° 0 mm 2 mps 746 mmHg 64%
    07:00 +14°C° 0 mm 2 mps 747 mmHg 63%
    08:00 +16°C° 0 mm 2 mps 747 mmHg 58%
    09:00 +17°C° 0 mm 3 mps 747 mmHg 52%
    10:00 +19°C° 0 mm 3 mps 747 mmHg 47%
    11:00 +20°C° 0 mm 3 mps 747 mmHg 43%
    12:00 +22°C° 0 mm 3 mps 747 mmHg 38%
    13:00 +23°C° 0 mm 4 mps 747 mmHg 34%
    14:00 +25°C° 0 mm 4 mps 746 mmHg 34%
    15:00 +25°C° 0 mm 4 mps 746 mmHg 34%
    16:00 +26°C° 0 mm 4 mps 746 mmHg 34%
    17:00 +25°C° 0 mm 4 mps 746 mmHg 39%
    18:00 +22°C° 0 mm 3 mps 747 mmHg 44%
    19:00 +21°C° 0 mm 3 mps 747 mmHg 50%
    20:00 +20°C° 0 mm 3 mps 747 mmHg 52%
    21:00 +19°C° 0 mm 2 mps 748 mmHg 55%
    22:00 +18°C° 0 mm 2 mps 748 mmHg 58%
    23:00 +17°C° 0 mm 2 mps 748 mmHg 60%

    25 January, Saturday

    Time Temperature Precipitation Wind Pressure Humidity
    00:00 +18°C° 0 mm 1 mps 748 mmHg 61%
    01:00 +16°C° 0 mm 1 mps 748 mmHg 63%
    02:00 +16°C° 0 mm 1 mps 748 mmHg 65%
    03:00 +16°C° 0 mm 1 mps 748 mmHg 66%
    04:00 +15°C° 0 mm 1 mps 748 mmHg 68%
    05:00 +16°C° 0 mm 1 mps 749 mmHg 66%
    06:00 +16°C° 0 mm 0 mps 749 mmHg 65%
    07:00 +16°C° 0 mm 0 mps 749 mmHg 64%
    08:00 +20°C° 0 mm 1 mps 749 mmHg 58%
    09:00 +22°C° 0 mm 1 mps 749 mmHg 52%
    10:00 +24°C° 0 mm 1 mps 749 mmHg 47%
    11:00 +25°C° 0 mm 1 mps 749 mmHg 43%
    12:00 +27°C° 0 mm 2 mps 748 mmHg 38%
    13:00 +28°C° 0 mm 2 mps 748 mmHg 34%
    14:00 +29°C° 0 mm 2 mps 748 mmHg 33%
    15:00 +29°C° 0 mm 2 mps 747 mmHg 31%
    16:00 +30°C° 0 mm 2 mps 747 mmHg 30%
    17:00 +29°C° 0 mm 2 mps 747 mmHg 33%
    18:00 +29°C° 0 mm 1 mps 747 mmHg 37%
    19:00 +28°C° 0 mm 1 mps 747 mmHg 40%
    20:00 +27°C° 0 mm 2 mps 748 mmHg 44%
    21:00 +25°C° 0 mm 2 mps 748 mmHg 47%
    22:00 +24°C° 0 mm 3 mps 748 mmHg 51%
    23:00 +23°C° 0 mm 2 mps 748 mmHg 54%

    26 January, Sunday

    Time Temperature Precipitation Wind Pressure Humidity
    00:00 +21°C° 0 mm 2 mps 748 mmHg 58%
    01:00 +20°C° 0 mm 2 mps 748 mmHg 62%
    02:00 +20°C° 0 mm 2 mps 748 mmHg 65%
    03:00 +19°C° 0 mm 2 mps 748 mmHg 67%
    04:00 +19°C° 0 mm 2 mps 748 mmHg 69%
    05:00 +21°C° 0 mm 1 mps 748 mmHg 68%
    06:00 +21°C° 0 mm 1 mps 748 mmHg 66%
    07:00 +22°C° 0 mm 1 mps 748 mmHg 64%
    08:00 +24°C° 0 mm 1 mps 748 mmHg 57%
    09:00 +26°C° 0 mm 1 mps 748 mmHg 51%
    10:00 +29°C° 0 mm 1 mps 748 mmHg 44%
    11:00 +30°C° 0 mm 2 mps 748 mmHg 40%
    12:00 +31°C° 0 mm 2 mps 747 mmHg 36%
    13:00 +33°C° 0 mm 3 mps 747 mmHg 33%
    14:00 +34°C° 0 mm 3 mps 746 mmHg 30%
    15:00 +34°C° 0 mm 3 mps 746 mmHg 28%
    16:00 +35°C° 0 mm 3 mps 745 mmHg 26%
    17:00 +34°C° 0 mm 3 mps 746 mmHg 29%
    18:00 +32°C° 0 mm 2 mps 746 mmHg 32%
    19:00 +30°C° 0 mm 2 mps 746 mmHg 35%
    20:00 +29°C° 0 mm 3 mps 746 mmHg 42%
    21:00 +27°C° 0 mm 3 mps 747 mmHg 49%
    22:00 +25°C° 0 mm 4 mps 747 mmHg 57%
    23:00 +24°C° 0 mm 3 mps 747 mmHg 63%

    27 January, Monday

    Time Temperature Precipitation Wind Pressure Humidity
    00:00 +22°C° 0 mm 3 mps 746 mmHg 69%
    01:00 +21°C° 0 mm 3 mps 746 mmHg 75%
    02:00 +20°C° 0 mm 2 mps 746 mmHg 77%
    03:00 +20°C° 0 mm 2 mps 746 mmHg 78%
    04:00 +19°C° 0 mm 2 mps 745 mmHg 80%
    05:00 +20°C° 0 mm 2 mps 745 mmHg 76%
    06:00 +21°C° 0 mm 2 mps 745 mmHg 72%
    07:00 +23°C° 0 mm 2 mps 745 mmHg 67%
    08:00 +26°C° 0 mm 2 mps 745 mmHg 57%
    09:00 +28°C° 0 mm 2 mps 745 mmHg 46%
    10:00 +31°C° 0 mm 3 mps 745 mmHg 36%
    11:00 +34°C° 0 mm 4 mps 744 mmHg 31%
    12:00 +35°C° 0 mm 5 mps 744 mmHg 27%
    13:00 +38°C° 0 mm 6 mps 743 mmHg 23%
    14:00 +38°C° 0 mm 6 mps 743 mmHg 23%
    15:00 +38°C° 0 mm 6 mps 742 mmHg 23%
    16:00 +38°C° 0 mm 6 mps 742 mmHg 22%
    17:00 +35°C° 0 mm 6 mps 742 mmHg 26%
    18:00 +34°C° 0 mm 5 mps 742 mmHg 29%
    19:00 +32°C° 0 mm 4 mps 742 mmHg 33%
    20:00 +29°C° 0 mm 4 mps 742 mmHg 38%
    21:00 +28°C° 0 mm 3 mps 743 mmHg 43%
    22:00 +26°C° 0 mm 3 mps 743 mmHg 49%
    23:00 +25°C° 0 mm 3 mps 743 mmHg 54%
    Show more